RH
72 66 48 47 64 39 33 23 31 29 32 37 54 56 51 50 55 51 86 78 74 77 71 72 84 82 78 74 72 68 69 67 64 63 62 62 62 62 62 63 64 64 64 64 65 65 65 66 68
76 67 76 58 66 74 50 28 27 21 32 62 54 62 60 54 84 89 91 82 73 74 72 70 84 80 75 74 70 69 66 65 64 62 62 60 62 62 62 64 64 64 64 64 64 65 65 68 68
70 67 84 86 66 73 60 30 25 26 44 48 55 65 67 72 81 81 78 79 74 76 72 70 79 74 72 69 69 66 65 64 64 62 62 64 62 63 64 65 65 65 65 65 62 62 64 67 68
86 77 77 87 89 56 44 28 31 38 63 48 50 62 70 69 73 77 80 80 80 76 68 74 77 75 72 69 67 66 65 64 63 61 63 61 63 64 64 65 65 65 64 63 61 61 65 65 67
85 84 87 90 75 57 34 30 33 33 44 46 52 63 82 78 78 86 88 80 84 75 67 66 78 74 72 68 67 66 66 65 63 62 63 62 64 64 65 66 66 64 62 60 59 62 64 66 68
88 86 93 68 56 62 46 46 36 35 40 49 59 79 78 85 92 93 87 82 76 73 69 64 76 75 73 70 66 63 63 63 68 61 63 64 64 64 65 64 63 61 60 60 61 63 64 67 69
85 90 88 75 61 56 55 48 37 38 36 43 70 82 83 95 93 90 88 81 76 70 68 64 62 68 76 71 63 62 65 70 68 65 64 67 67 64 62 60 59 57 57 60 65 66 67 69 71
89 92 91 78 58 58 57 52 51 43 35 43 59 83 88 93 92 92 87 84 78 76 71 70 66 61 56 55 64 69 74 74 74 72 79 81 82 73 66 66 59 57 60 64 67 69 70 72 74
87 86 93 82 71 59 56 61 62 58 46 51 48 57 69 86 94 94 95 91 87 84 77 72 70 66 67 64 69 77 79 79 82 80 82 76 67 66 60 70 66 59 61 62 63 61 63 69 75
93 95 79 70 64 61 62 63 61 58 60 57 65 51 76 88 97 96 96 95 91 91 86 76 74 73 70 66 73 72 73 70 65 62 61 59 61 61 62 65 65 63 61 56 57 58 57 50 46
93 89 76 68 68 66 68 72 66 62 60 51 53 55 91 92 97 96 88 82 81 85 83 82 80 78 74 75 79 75 70 67 63 60 55 49 47 48 50 49 46 47 51 37 40 41 40 43 42
95 88 84 76 67 66 73 65 72 71 50 44 55 54 82 95 97 93 85 82 82 87 87 86 81 81 78 77 76 72 70 66 65 57 48 43 43 44 45 45 45 41 40 38 43 47 46 44 38
97 81 81 80 74 73 72 76 66 70 60 58 60 60 68 88 93 88 81 81 81 82 89 87 85 82 80 77 75 69 66 63 63 56 46 41 42 42 42 41 40 40 37 35 34 38 43 46 41
78 83 78 76 76 79 74 69 76 63 59 66 65 58 59 84 88 92 89 90 86 79 86 88 83 79 76 74 71 65 64 63 62 55 47 41 41 41 42 41 39 39 37 37 35 34 38 41 37
78 92 86 83 85 85 79 88 80 62 64 66 62 66 63 83 85 90 88 90 85 80 82 89 85 77 72 70 66 65 65 61 58 51 43 42 41 40 43 41 39 40 38 32 29 32 34 38 38
91 93 93 67 80 79 83 77 63 63 65 67 66 67 65 70 83 84 87 86 85 84 86 86 74 77 71 67 65 62 60 57 54 47 43 40 40 41 41 41 41 38 37 35 33 29 32 37 39
87 86 87 75 73 78 88 73 56 53 67 65 61 61 72 65 69 77 83 83 87 88 88 86 79 78 72 68 63 61 57 53 49 45 42 42 41 41 41 42 44 38 38 37 29 36 33 33 38
77 91 74 76 70 79 88 83 66 60 66 64 60 61 64 72 68 69 76 82 82 84 86 82 78 77 72 70 64 60 56 52 47 45 42 43 41 44 46 46 40 34 36 35 33 32 38 41 39
64 75 74 72 71 82 81 79 65 63 69 69 59 60 63 65 63 60 71 81 86 83 88 82 78 78 75 70 66 61 59 55 50 47 46 45 44 46 48 48 40 37 33 36 33 36 38 40 41
79 86 82 62 74 80 78 77 70 63 69 64 64 61 60 62 66 60 67 84 88 85 86 81 74 78 72 66 61 59 56 57 53 55 51 50 49 53 49 47 42 38 36 36 35 33 38 46 46
80 88 84 78 80 84 91 92 75 62 60 62 59 56 56 59 65 65 68 79 84 81 85 79 74 76 71 66 65 65 65 63 59 55 58 57 53 57 56 50 42 42 40 41 41 40 36 39 44
96 78 81 87 96 91 86 86 62 56 61 66 63 61 57 56 55 66 67 65 66 72 78 76 73 75 71 65 60 58 53 55 58 56 61 62 57 59 56 51 44 46 44 42 42 40 42 39 40
88 60 65 70 80 90 82 98 59 49 67 66 69 63 61 52 55 59 65 62 56 63 76 75 73 74 71 63 59 56 55 55 59 62 63 62 63 59 53 45 44 43 44 44 42 44 42 43 38
70 71 78 78 89 96 68 86 57 52 56 51 55 61 60 57 53 50 57 60 60 58 70 75 75 74 70 63 57 54 59 62 62 65 66 67 62 58 52 48 46 45 44 45 48 47 46 43 43
77 97 96 98 97 81 51 81 60 46 42 42 46 59 60 58 54 55 59 62 65 67 71 74 76 76 68 63 57 55 56 54 58 62 64 67 60 55 50 46 46 45 49 49 46 47 46 45 44
87 87 92 92 87 61 68 77 53 44 35 37 43 43 56 60 54 54 60 62 66 67 71 72 76 76 69 63 58 55 54 52 54 56 61 60 54 51 46 44 44 43 44 46 46 50 49 48 49
95 96 66 89 94 92 74 72 54 53 51 46 40 52 62 60 56 53 57 59 62 66 72 69 76 73 68 63 59 56 53 53 56 59 58 59 52 45 44 44 44 46 47 47 48 45 46 45 49
60 60 92 86 95 84 66 81 64 50 49 49 46 47 61 62 59 53 53 56 58 62 68 68 71 72 67 64 59 57 55 54 57 59 60 56 47 42 44 46 46 47 47 47 46 48 48 45 51
89 97 79 74 77 76 84 69 50 44 41 39 37 37 43 48 59 56 50 50 57 63 67 70 70 70 68 64 61 61 60 59 60 60 56 49 45 43 44 45 46 46 45 44 44 46 48 49 51
62 72 88 87 91 72 85 78 44 52 51 46 44 47 43 38 53 53 49 53 62 67 67 71 72 70 68 64 62 63 64 63 63 61 52 45 43 45 44 44 44 45 45 46 47 46 49 50 53
Wind_Speed
6 7 1 2 2 1 3 5 2 3 2 3 8 5 11 3 6 4 5 7 17 18 17 17 18 19 19 19 17 16 16 16 14 14 15 15 15 15 15 16 16 16 16 17 17 17 17 17 18
2 3 2 2 4 7 5 4 6 4 2 2 3 4 3 3 1 5 9 14 20 17 16 18 20 20 20 19 17 17 16 16 15 15 15 15 15 15 15 16 16 16 17 17 17 17 17 17 18
1 2 2 3 4 15 8 6 3 2 1 2 2 0 2 3 2 12 10 19 19 17 17 18 20 20 20 19 18 17 17 16 16 15 15 15 15 16 15 16 16 16 16 16 16 17 17 17 17
1 1 2 4 17 4 8 5 5 1 2 3 2 2 0 3 7 8 17 18 19 17 17 19 21 20 20 19 18 18 17 17 16 16 16 16 16 16 15 16 16 16 16 16 16 16 17 17 17
2 1 3 6 12 3 4 2 1 3 2 3 4 3 2 2 7 15 15 16 17 17 17 18 20 21 21 20 19 18 18 17 16 16 16 16 16 15 16 16 16 15 16 16 17 17 17 17 17
1 1 2 11 10 6 6 2 2 2 1 4 3 5 4 4 10 12 13 15 16 17 16 17 18 19 20 20 18 18 18 17 16 16 16 16 16 16 16 16 16 16 16 16 17 18 18 18 18
2 2 4 3 4 8 5 2 4 2 2 3 5 7 2 10 10 12 13 14 14 15 16 16 16 16 18 17 19 18 17 16 16 16 16 16 15 16 16 17 17 17 17 17 17 18 18 18 18
2 1 3 4 7 7 6 5 5 7 5 1 1 6 5 5 14 12 14 13 13 11 12 14 15 15 14 13 18 17 16 16 16 17 16 15 14 15 15 15 17 17 18 18 17 17 18 18 17
1 4 5 6 5 3 3 4 3 2 3 2 5 2 3 15 13 14 13 12 11 8 10 12 13 11 11 13 12 14 16 17 17 14 14 12 8 11 14 14 16 18 19 19 18 17 16 16 16
4 4 9 6 3 2 3 3 3 2 4 4 3 1 7 17 14 18 17 14 13 13 10 11 12 12 13 10 12 11 11 9 9 10 10 8 9 9 11 13 16 18 18 18 18 16 15 11 7
5 7 5 3 3 2 2 3 3 5 6 5 8 5 14 16 14 16 15 14 13 14 11 12 12 12 13 10 8 6 6 7 7 10 9 9 7 7 6 6 6 7 11 7 9 9 7 10 7
7 9 8 5 3 4 4 2 4 9 5 3 4 3 12 13 14 16 17 16 15 15 14 12 12 11 11 8 7 8 7 6 6 7 10 8 6 7 7 6 7 7 5 8 8 6 8 10 10
10 11 6 10 11 9 5 9 9 6 10 7 4 4 13 15 12 12 15 16 16 18 14 14 13 11 10 10 8 8 8 7 8 7 8 8 8 8 8 7 7 7 7 7 8 8 8 9 10
4 13 16 7 11 6 9 12 7 2 10 9 8 9 13 19 18 9 14 16 16 18 18 15 14 12 12 10 11 8 8 8 8 7 7 9 8 8 8 7 7 7 7 7 8 7 7 8 9
9 13 10 9 6 7 6 17 17 14 7 11 12 9 12 15 17 15 13 15 17 17 18 16 14 13 13 12 10 8 7 8 8 7 9 10 9 10 9 8 7 7 6 9 8 8 7 7 7
5 8 12 6 13 8 9 16 8 15 14 13 11 7 11 14 16 16 11 14 14 15 20 16 13 14 13 11 8 7 8 8 8 8 8 9 10 10 9 8 7 6 6 7 7 6 7 7 6
8 12 16 10 10 5 14 16 12 12 16 17 15 12 10 10 9 13 15 13 14 15 18 17 15 15 14 11 8 9 10 8 8 8 7 10 10 10 9 8 7 7 6 7 7 7 5 6 6
17 13 11 8 3 12 12 20 15 5 14 16 15 14 11 11 14 14 18 15 13 13 16 18 14 14 13 9 8 6 6 6 7 7 8 10 9 10 10 8 8 6 6 6 6 9 8 5 4
13 10 15 5 3 6 15 21 22 15 9 13 14 15 15 14 11 14 14 18 14 13 13 16 17 15 12 9 8 6 7 6 6 6 10 10 10 10 10 8 8 7 8 6 4 4 9 9 4
18 19 18 12 6 9 12 18 19 14 17 19 18 17 18 14 11 12 15 15 15 16 15 15 16 17 13 10 7 5 7 3 4 5 7 9 10 10 10 9 8 8 7 8 7 5 3 6 8
21 22 18 18 4 7 7 16 20 17 20 18 18 20 19 19 16 16 16 18 16 17 17 16 16 18 15 13 9 7 7 6 4 6 6 6 9 8 10 10 8 8 6 7 7 7 6 4 6
15 13 11 7 8 7 7 9 11 10 20 18 21 18 21 21 20 20 20 19 24 20 17 19 17 17 14 16 13 17 9 10 5 6 5 7 8 9 9 9 9 9 6 8 7 6 6 4 4
8 7 9 13 15 12 15 10 10 15 14 18 22 23 21 22 21 21 20 22 20 21 21 19 19 18 16 17 16 13 12 7 8 7 11 10 8 8 9 9 9 9 6 7 8 7 7 5 4
3 7 4 10 10 14 14 12 13 16 13 18 15 21 22 22 22 23 23 20 17 16 18 19 20 20 19 18 17 17 17 13 11 10 9 8 7 6 8 8 8 8 7 7 6 6 7 6 5
11 8 5 7 8 11 9 13 22 6 12 18 15 19 23 22 22 21 18 18 17 19 19 18 20 18 19 19 18 17 17 18 18 15 11 12 8 6 7 8 8 6 7 7 6 6 6 4 4
15 14 6 8 6 8 7 14 10 15 21 19 11 16 17 22 23 24 24 22 23 21 22 21 22 22 21 20 20 16 17 12 11 14 12 9 8 8 9 8 7 8 7 6 6 5 4 4 4
8 16 17 3 2 4 5 6 9 12 11 11 19 11 16 20 22 25 24 26 25 25 24 24 22 19 21 20 17 16 15 14 14 14 12 9 10 8 9 9 9 8 7 6 6 4 4 4 3
15 8 7 10 9 12 3 4 10 8 8 7 6 13 13 17 23 23 23 24 24 28 25 23 25 24 21 19 16 15 16 14 14 14 14 13 11 10 10 9 9 8 7 6 6 4 4 4 3
9 6 7 6 8 5 1 5 5 4 2 2 4 7 11 16 19 22 22 22 24 24 25 26 23 23 21 18 17 16 15 14 14 13 13 13 12 11 10 10 9 9 7 5 5 4 4 4 3
15 13 9 6 7 8 1 8 2 2 3 2 4 6 9 13 18 22 22 22 22 23 23 23 23 22 22 20 17 16 15 16 14 14 13 13 13 10 11 10 9 8 7 5 4 4 3 3 2
Wind_Direction
322 317 354 37 226 85 213 236 276 234 227 165 132 164 192 139 171 204 130 160 141 146 150 147 142 133 125 116 114 125 120 117 117 113 107 103 100 96 93 88 86 83 79 78 74 73 72 72 76
357 311 38 94 210 217 218 219 220 225 9 127 122 128 171 204 111 131 133 154 145 145 144 143 134 129 120 121 131 127 124 121 119 114 110 104 98 98 93 90 88 83 79 78 77 74 72 76 77
337 8 141 190 207 225 212 206 216 231 222 166 148 242 160 157 178 153 135 149 141 141 141 138 130 128 132 135 132 129 125 123 120 116 107 104 105 97 94 92 88 86 84 79 76 74 74 81 78
50 22 55 227 230 256 209 181 169 181 146 194 159 169 352 321 166 149 143 144 138 139 140 135 134 137 137 137 134 130 128 125 122 120 116 113 105 100 96 92 89 85 84 82 79 75 76 77 77
42 64 215 239 240 238 247 333 215 171 171 161 163 169 67 38 120 130 137 145 136 138 140 138 138 139 138 138 136 134 131 129 124 123 119 114 107 103 97 91 88 87 84 82 80 80 78 78 77
71 50 215 235 233 211 232 162 214 217 206 145 156 140 133 131 130 133 132 139 141 137 138 139 140 141 139 139 140 138 136 134 129 129 120 114 111 105 95 94 91 89 85 83 80 81 81 80 76
143 207 244 267 251 226 218 192 184 188 243 205 143 157 129 158 132 129 126 134 137 139 140 141 144 141 137 143 142 142 137 132 128 123 119 113 108 100 98 96 92 88 86 87 85 81 81 81 79
112 155 287 244 224 248 198 199 162 179 196 109 270 176 175 160 138 126 129 133 134 137 143 140 143 145 144 145 147 137 129 124 117 111 101 91 80 91 89 90 92 89 87 89 88 83 80 79 78
120 240 244 244 177 227 182 221 186 351 154 163 159 176 164 145 141 136 136 138 135 131 145 145 141 137 132 134 130 124 119 113 113 112 103 101 102 94 93 84 89 89 88 86 84 79 76 75 71
179 208 228 206 204 253 223 218 192 190 167 204 190 228 176 153 162 153 159 157 156 153 149 148 142 137 135 133 126 123 118 121 121 119 117 110 105 99 94 84 86 85 84 79 78 76 72 72 71
197 225 205 265 257 254 253 231 200 211 224 211 181 161 149 164 173 163 159 165 162 161 159 156 146 141 138 138 132 130 126 123 121 124 122 118 108 105 97 92 82 85 79 74 71 70 64 71 76
240 247 251 269 258 250 220 223 225 215 247 188 178 221 153 168 173 169 167 166 167 168 161 156 150 144 141 140 140 137 137 134 131 131 128 125 115 108 103 96 90 84 81 85 73 73 74 74 73
224 250 249 244 252 245 254 231 242 231 237 219 242 217 183 166 167 177 168 164 167 174 164 166 156 150 150 147 145 142 142 142 138 135 133 130 122 115 110 102 95 89 88 83 79 75 74 73 74
194 231 250 248 242 236 239 249 208 239 226 212 239 205 199 179 167 170 171 169 172 172 171 167 162 154 154 155 155 151 148 141 142 139 137 130 125 121 113 109 99 90 85 84 81 79 81 81 82
234 252 255 236 228 234 238 254 242 230 201 220 221 208 184 182 161 162 184 175 175 175 171 169 160 156 157 158 158 155 154 148 144 140 139 132 129 122 118 112 101 96 92 89 84 80 82 86 84
190 226 245 218 197 219 172 252 214 215 200 212 224 234 189 181 172 153 184 186 183 172 172 165 162 161 157 156 156 156 155 149 142 141 137 135 127 125 116 110 101 101 90 86 76 72 80 80 87
200 247 229 253 190 181 198 265 239 214 196 213 213 214 208 188 193 164 164 190 184 184 166 163 160 162 157 149 147 148 148 147 143 138 136 136 131 127 115 108 104 97 89 79 81 70 73 78 89
232 232 243 231 176 208 214 253 252 232 201 214 203 207 203 193 199 194 168 172 186 186 173 162 159 154 149 135 128 120 131 133 140 139 140 138 132 125 116 110 106 100 93 85 80 78 69 73 86
224 242 244 208 193 230 236 245 253 238 219 219 211 206 206 211 202 193 181 167 175 181 173 163 154 156 147 147 146 144 149 145 136 139 140 138 134 128 120 113 108 97 87 88 90 79 59 52 41
235 250 255 262 226 250 259 259 261 245 222 218 209 206 209 202 172 180 173 161 177 175 171 169 166 160 159 158 154 141 143 123 128 130 131 136 135 131 123 119 111 104 98 81 68 70 93 55 25
223 239 244 253 277 263 295 270 259 251 232 225 222 211 207 197 184 174 179 179 175 182 172 171 170 166 162 150 122 105 96 102 111 135 131 135 136 128 126 122 117 106 98 91 81 77 79 106 49
242 217 233 231 242 249 180 281 242 242 228 214 219 209 213 200 193 180 182 183 182 175 180 172 170 168 161 154 149 155 158 159 151 150 136 134 137 131 127 121 115 109 108 102 91 80 84 95 93
239 164 218 243 256 265 238 263 272 230 221 217 216 210 209 208 197 190 184 184 192 170 178 175 167 167 161 165 162 160 154 147 140 133 134 135 131 132 128 123 118 112 105 100 100 92 82 78 95
160 189 203 244 239 243 230 227 247 238 221 226 222 214 208 203 200 200 179 183 199 179 175 171 172 171 166 166 166 164 154 146 144 147 143 142 138 134 130 123 117 115 114 111 104 97 89 89 88
207 177 205 214 219 248 206 209 243 248 240 231 224 211 207 202 192 194 184 182 177 177 174 169 171 170 172 168 169 165 160 159 158 156 155 151 146 145 143 131 128 121 119 116 113 104 104 97 99
203 209 220 215 205 253 149 235 249 231 236 237 248 218 204 201 195 190 181 180 173 184 173 174 173 168 172 174 172 167 160 160 158 160 155 152 149 147 146 132 124 123 122 117 114 106 104 101 100
177 207 210 331 149 267 212 288 278 244 237 224 226 209 200 198 195 195 188 181 179 174 177 173 173 172 172 174 168 162 157 156 157 154 147 147 138 138 135 132 128 124 120 119 116 111 108 104 101
205 153 170 211 218 238 240 255 248 298 258 253 247 218 203 197 195 194 188 185 179 173 175 177 173 170 169 169 167 162 156 155 150 150 145 146 137 133 135 132 129 125 122 119 114 112 110 104 88
195 182 210 175 215 225 350 254 208 245 306 4 284 250 219 210 202 197 192 188 178 177 173 171 173 163 163 164 165 158 153 146 149 146 142 140 133 137 137 136 134 128 126 120 113 112 112 95 82
191 187 180 194 221 221 56 273 127 2 16 240 282 301 287 256 210 200 187 178 170 174 172 173 165 162 162 159 160 155 142 140 142 137 137 137 134 134 135 133 129 126 124 122 120 117 102 88 47